Regional Weather Roundup
Issued by NWS

Home | Current Version | Previous Version | Text Only | Print | Product List | Glossary On
Versions: 1 2 3 4 5 6 7 8 9 10 11 12 13 14 15 16 17 18 19 20 21 22 23 24 25 26 27 28 29 30 31 32 33 34 35 36 37 38 39 40 41 42 43 44 45 46 47 48 49 50
000
ASUS43 KOAX 270210
RWRNE

WEATHER ROUNDUP FOR NEBRASKA
NATIONAL WEATHER SERVICE OMAHA NE
900 PM CDT SUN MAR 26 2017

NOTES: SATELLITE DATA IS BEING USED TO AUGMENT CLOUD COVER ABOVE
       12000 FEET.
       "FAIR" INDICATES FEW OR NO CLOUDS BELOW 12,000 FEET WITH NO
       SIGNIFICANT WEATHER AND/OR OBSTRUCTIONS TO VISIBILITY.

  * THESE STATIONS DO NOT REPORT WEATHER SUCH AS RAIN...SNOW OR FOG.

NEZ001>004-019>022-054>056-270300-
NEBRASKA PANHANDLE

CITY           SKY/WX    TMP DP  RH WIND       PRES   REMARKS
SCOTTSBLUFF    CLEAR     43  33  68 N5        29.93F
ALLIANCE       MOCLDY    42  37  82 N7        29.92R
CHADRON        CLEAR     42  37  82 N5        29.93S
KIMBALL        CLEAR     41  37  86 N6        29.95S
SIDNEY         CLEAR     42  35  76 NW9       29.93R
$$

NEZ057>060-069>072-079>082-270300-
SOUTHWEST NEBRASKA

CITY           SKY/WX    TMP DP  RH WIND       PRES   REMARKS
NORTH PLATTE   CLOUDY    51  41  68 E8        29.90R
IMPERIAL       PTCLDY    45  41  86 S6        29.90R
LEXINGTON      CLOUDY    48  41  77 E9        29.93R
MCCOOK         CLOUDY    48  41  76 S6        29.92R
OGALLALA       CLOUDY    51  38  60 CALM      29.90R
$$

NEZ005>010-023>029-035>040-094-270300-
NORTH CENTRAL NEBRASKA

CITY           SKY/WX    TMP DP  RH WIND       PRES   REMARKS
VALENTINE      CLOUDY    45  35  68 NE8       29.93R
AINSWORTH      MOCLDY    40  39  97 E6        29.95R
BROKEN BOW     PTCLDY    49  42  77 SE7       29.92R
O`NEILL        CLOUDY    45  41  86 CALM      29.97R
ORD            CLOUDY    44  39  82 E7        29.93R
THEDFORD       CLOUDY    50  37  59 E7        29.93R
$$

NEZ041-046>049-061>064-073>077-083>087-270300-
SOUTH CENTRAL NEBRASKA

CITY           SKY/WX    TMP DP  RH WIND       PRES   REMARKS
GRAND ISLAND   CLOUDY    47  45  93 E8        29.95S
AURORA         CLOUDY    46  45  95 CALM      29.95R
HASTINGS       LGT RAIN  46  44  93 E7        29.94S
HEBRON         LGT RAIN  46  44  95 NE3       29.93F
HOLDREGE       CLOUDY    46  43  90 CALM      29.93F
KEARNEY *      CLOUDY    48  41  76 CALM      29.94S
YORK           CLOUDY    46  45  93 CALM      29.95S
$$

NEZ011>018-030>034-042>045-270300-
NORTHEAST NEBRASKA

CITY           SKY/WX    TMP DP  RH WIND       PRES   REMARKS
NORFOLK        CLOUDY    44  40  85 SE3       29.96R
ALBION         CLOUDY    47  42  84 E5        29.96S
BLAIR          CLOUDY    47  42  82 CALM      29.96R
FREMONT        CLOUDY    46  43  87 CALM      29.97R
TEKAMAH        CLOUDY    47  42  83 NW3       29.97R
WAYNE          CLOUDY    44  42  92 N6        29.97R
$$

NEZ050>053-065>068-078-088>093-270300-
SOUTHEAST NEBRASKA

CITY           SKY/WX    TMP DP  RH WIND       PRES   REMARKS
LINCOLN        CLOUDY    48  42  80 CALM      29.97F
OMAHA EPPLEY   CLOUDY    49  41  74 CALM      29.97R
BEATRICE       CLOUDY    46  44  90 NE5       29.95R
FALLS CITY     CLOUDY    47  43  86 NE3       29.96F
NEBRASKA CITY  CLOUDY    46  43  89 CALM      29.96F
PLATTSMOUTH    CLOUDY    47  40  77 CALM      29.97R
$$

NEZ044-045-051>053-067-270300-
OMAHA AREA

CITY           SKY/WX    TMP DP  RH WIND       PRES   REMARKS
OMAHA EPPLEY   CLOUDY    49  41  74 CALM      29.97R
BLAIR          CLOUDY    47  42  82 CALM      29.96R
FREMONT        CLOUDY    46  43  87 CALM      29.97R
MILLARD        CLOUDY    50  43  78 CALM      29.97S
OFFUTT AFB     CLOUDY    47  41  80 CALM      29.96R
PLATTSMOUTH    CLOUDY    47  40  77 CALM      29.97R
WAHOO          DRIZZLE   45  43  94 CALM      29.97S
$$




USA.gov is the U.S. government's official web portal to all federal, state and local government web resources and services.